Location: Lecco
(45.8566°N, 9.3977°E)
Time: 07:29:57
(UTC+02:00)

Altair - Pass Details

Date: 14 August 2020
Orbit: 1501 x 1682 km, 47.2° (Epoch: 25 September)

Event Time Altitude Azimuth Distance (km) Brightness Sun altitude
Rises 05:24:47 0° 265° (W) 4,785 - -9.6°
Exits shadow 05:26:36 - 266° (W) 4,198 9.2 -9.3°
Reaches altitude 10° 05:27:55 10° 267° (W) 3,776 9.0 -9.2°
Maximum altitude 05:37:29 83° 355° (N) 1,549 7.6 -7.7°
Drops below altitude 10° 05:46:46 10° 85° (E) 3,664 10.8 -6.3°
Sets 05:49:46 0° 86° (E) 4,638 11.5 -5.8°
